VEAT

Details ICAO VEAT (IXA)
Name AGARTALA
Region India
Timezone Asia/Kolkata (UTC+5.5)
Plans Departing 3
Arriving 10
Stats Elevation 46 ft / 14 m (AMSL)
Location 23.886978° 91.240448°
Runways 1
Magnetic Variation 0.257° W
Sunrise 2018-05-20 23:11:45 UTC / 2018-05-21 04:41:45 Local
Sunset 2018-05-21 12:34:19 UTC / 2018-05-21 18:04:19 Local
Advertisement - Login to hide

Runways

ID Width Length Bearing (true) Bearing (mag) Surface Threshold Offset Overrun Length
18 148 ft / 45 m 7,522 ft / 2,293 m 184.12° 184.38° Asphalt 440 ft / 134 m 200 ft / 61 m
36 148 ft / 45 m 7,522 ft / 2,293 m 4.12° 4.38° Asphalt 0 ft / 0 m 200 ft / 61 m

Map

Weather


0- 5 10 15 20 25 30 35+ Temperature / ° C

Clouds and Precipitation
Forecast for 2018-05-21 06:00 UTC. Updated 24 minutes ago

Ground ~20,000 ft ~40,000 ft Winds

METAR

VEAT 210530Z 04003KT 5000 BR FEW010 SCT018 FEW030CB BKN100 24/23 Q1006 NOSIG

TAF

Not found

Frequencies

Tower 122.70 MHz TWR
Tower 123.50 MHz TWR
Warning: Do not use this data for real-world aviation or navigation. No guarantee of current accuracy is given.